F2092 Weather Reports


time (UTC)temp
C
wind
direction
speed
KPH
gust
KPH
rain 1hr
cm
rain 24hr
cm
rain mn
cm
humidity
%
barometer
mb
20260506211803 20 232 8.0 20.9 0.00 0.00 0.00 84 1007.0
20260506210903 20 233 8.0 19.3 0.00 0.00 0.00 84 1006.9
20260506210214 20 230 8.0 16.1 0.00 0.00 0.00 84 1006.8
20260506205403 20 233 4.8 14.5 0.00 0.00 0.00 84 1006.8
20260506204503 20 239 4.8 19.3 0.00 0.00 0.00 85 1006.7
20260506203603 19 229 4.8 12.9 0.00 0.00 0.00 87 1006.7
20260506202703 18 224 4.8 14.5 0.00 0.00 0.00 88 1007.2
20260506201803 18 224 4.8 11.3 0.00 0.00 0.00 88 1007.2
20260506200903 18 233 4.8 14.5 0.00 0.00 0.00 88 1007.1
20260506200003 18 226 4.8 20.9 0.00 0.00 0.00 88 1007.5
20260506195403 18 225 4.8 20.9 0.00 0.00 0.00 88 1007.6
20260506194503 18 231 8.0 22.5 0.00 0.00 0.00 88 1007.7
20260506193603 19 227 9.7 30.6 0.00 0.00 0.00 84 1007.8
20260506192703 20 231 9.7 25.7 0.00 0.00 0.00 83 1007.7
20260506192015 20 226 8.0 20.9 0.00 0.00 0.00 82 1007.7
20260506190903 20 232 6.4 19.3 0.00 0.00 0.00 82 1007.7
20260506190215 20 232 8.0 29.0 0.00 0.00 0.00 82 1007.7
20260506185403 20 226 14.5 33.8 0.00 0.00 0.00 81 1007.7
20260506184503 20 233 6.4 32.2 0.00 0.00 0.00 80 1007.6
20260506183603 21 235 6.4 12.9 0.00 0.00 0.00 78 1007.5
20260506182914 21 227 6.4 12.9 0.00 0.00 0.00 76 1007.6
20260506182016 21 234 8.0 27.4 0.00 0.00 0.00 75 1007.7
20260506180903 22 228 8.0 22.5 0.00 0.00 0.00 74 1007.9
20260506180004 22 221 4.8 17.7 0.00 0.00 0.00 75 1008.1
20260506175403 22 226 6.4 19.3 0.00 0.00 0.00 75 1008.0
20260506174503 21 230 4.8 17.7 0.00 0.00 0.00 76 1008.0
20260506173603 21 228 4.8 14.5 0.00 0.00 0.00 77 1008.0
20260506172703 21 231 4.8 17.7 0.00 0.00 0.00 78 1008.4
20260506172017 21 223 3.2 9.7 0.00 0.00 0.00 80 1008.3
20260506171114 21 230 3.2 12.9 0.00 0.00 0.00 79 1008.5
20260506170003 20 229 4.8 16.1 0.00 0.00 0.00 79 1008.7
20260506165613 20 233 6.4 19.3 0.00 0.00 0.00 78 1009.1
20260506164503 20 234 8.0 22.5 0.00 0.00 0.00 78 1009.3
20260506163813 20 237 6.4 19.3 0.00 0.00 0.00 79 1009.5
20260506162915 21 230 6.4 17.7 0.00 0.00 0.00 77 1009.5
20260506161803 21 236 6.4 20.9 0.00 0.00 0.00 74 1009.8
20260506160903 22 227 9.7 22.5 0.00 0.00 0.00 71 1009.7
20260506160003 22 228 11.3 35.4 0.00 0.00 0.00 68 1009.7
20260506155403 22 228 8.0 35.4 0.00 0.00 0.00 68 1009.7
20260506154503 23 233 11.3 30.6 0.00 0.00 0.00 66 1009.8
20260506153603 22 237 8.0 27.4 0.00 0.00 0.00 69 1009.7
20260506152703 22 234 4.8 12.9 0.00 0.00 0.00 70 1009.6
20260506151803 22 234 9.7 24.1 0.00 0.00 0.00 69 1009.6
20260506151115 22 234 9.7 22.5 0.00 0.00 0.00 68 1009.9
20260506150003 22 232 14.5 32.2 0.00 0.00 0.00 66 1009.7
20260506145403 23 237 11.3 27.4 0.00 0.00 0.00 66 1009.8
20260506144717 23 235 8.0 25.7 0.00 0.00 0.00 68 1009.7
20260506143603 23 223 8.0 24.1 0.00 0.00 0.00 69 1009.5
20260506142703 22 228 8.0 20.9 0.00 0.00 0.00 70 1009.6
20260506141803 22 229 8.0 20.9 0.00 0.00 0.00 71 1009.6
20260506140903 22 238 9.7 25.7 0.00 0.00 0.00 71 1009.4
20260506140003 22 238 8.0 27.4 0.00 0.00 0.00 71 1009.7
20260506135403 22 230 8.0 20.9 0.00 0.00 0.00 72 1009.7
20260506134503 22 221 6.4 30.6 0.00 0.00 0.00 72 1009.7
20260506133603 21 216 6.4 22.5 0.00 0.00 0.00 74 1009.8
20260506132703 21 228 9.7 25.7 0.00 0.00 0.00 74 1010.0
20260506131803 21 227 9.7 35.4 0.00 0.00 0.00 75 1010.1
20260506131117 21 225 9.7 30.6 0.00 0.00 0.00 75 1010.1
20260506130004 21 226 8.0 17.7 0.00 0.00 0.00 77 1010.0
20260506125616 20 230 6.4 17.7 0.00 0.00 0.00 77 1010.0
20260506124503 20 229 4.8 19.3 0.00 0.00 0.00 80 1010.0
20260506123815 19 236 4.8 17.7 0.00 0.00 0.00 80 1010.1
20260506122703 19 217 6.4 17.7 0.00 0.00 0.00 80 1010.2
20260506121803 19 220 6.4 19.3 0.00 0.00 0.00 80 1010.2
20260506120903 19 226 8.0 17.7 0.00 0.00 0.00 80 1010.3
20260506120003 19 231 6.4 17.7 0.00 0.00 0.00 80 1010.4
20260506115403 19 227 8.0 20.9 0.00 0.00 0.00 81 1010.4
20260506114503 18 231 8.0 25.7 0.00 0.00 0.00 81 1010.5
20260506113603 18 228 8.0 19.3 0.00 0.00 0.00 81 1010.5
20260506112703 18 230 8.0 19.3 0.00 0.00 0.00 83 1010.6
20260506111803 18 223 6.4 19.3 0.00 0.00 0.00 83 1010.6
20260506110903 18 226 6.4 19.3 0.00 0.00 0.00 83 1010.4
20260506110003 18 223 4.8 19.3 0.00 0.00 0.00 84 1010.4
20260506105403 17 228 6.4 20.9 0.00 0.00 0.00 85 1010.3
20260506104714 17 227 6.4 20.9 0.00 0.00 0.00 86 1010.4
20260506103816 17 229 4.8 17.7 0.00 0.00 0.00 87 1010.5
20260506102703 16 229 6.4 17.7 0.00 0.00 0.00 88 1010.4
20260506101803 16 230 4.8 19.3 0.00 0.00 0.00 88 1010.2
20260506100903 16 228 4.8 17.7 0.00 0.00 0.00 88 1010.2
20260506100004 17 223 6.4 17.7 0.00 0.00 0.00 87 1010.1
20260506095403 17 220 6.4 17.7 0.00 0.00 0.00 88 1010.0
20260506094503 17 225 4.8 17.7 0.00 0.00 0.00 88 1010.1
20260506093603 17 230 6.4 17.7 0.00 0.00 0.00 87 1010.1
20260506092703 17 231 4.8 12.9 0.00 0.00 0.00 87 1010.0
20260506091803 17 228 8.0 27.4 0.00 0.00 0.00 87 1010.2
20260506090903 17 229 6.4 17.7 0.00 0.00 0.00 87 1010.3
20260506090216 17 230 6.4 22.5 0.00 0.00 0.00 87 1010.3
20260506085403 17 225 6.4 17.7 0.00 0.00 0.00 87 1010.4
20260506084503 17 223 4.8 16.1 0.00 0.00 0.00 86 1010.5
20260506083813 17 221 4.8 17.7 0.00 0.00 0.00 86 1010.5
20260506082703 17 222 6.4 17.7 0.00 0.00 0.00 86 1010.7
20260506081803 17 230 6.4 17.7 0.00 0.00 0.00 86 1010.6
20260506080903 17 224 6.4 17.7 0.00 0.00 0.00 86 1010.7
20260506080217 17 223 4.8 16.1 0.00 0.00 0.00 86 1010.5
20260506072703 17 220 4.8 12.9 0.00 0.00 0.00 86 1010.5
20260506072013 17 228 6.4 17.7 0.00 0.00 0.00 85 1010.7
20260506071115 17 224 6.4 17.7 0.00 0.00 0.00 85 1010.8
20260506070213 17 229 4.8 16.1 0.00 0.00 0.00 85 1010.6
20260506061803 18 220 4.8 22.5 0.00 0.00 0.00 83 1010.7
20260506060903 18 216 4.8 16.1 0.00 0.00 0.00 82 1010.5
20260506051117 19 230 6.4 19.3 0.00 0.00 0.00 78 1010.8
20260506044503 19 234 6.4 24.1 0.00 0.00 0.00 77 1011.0
20260506043603 19 230 6.4 27.4 0.00 0.00 0.00 76 1011.0
20260506042912 19 225 6.4 22.5 0.00 0.00 0.00 76 1010.9
20260506042015 20 227 8.0 25.7 0.00 0.00 0.00 76 1011.2
20260506041112 20 228 6.4 17.7 0.00 0.00 0.00 75 1011.2
20260506040004 20 221 8.0 22.5 0.00 0.00 0.00 75 1011.1
20260506035403 20 231 8.0 22.5 0.00 0.00 0.00 75 1011.0
20260506034503 20 227 8.0 22.5 0.00 0.00 0.00 74 1011.2
20260506033603 20 228 6.4 22.5 0.00 0.00 0.00 74 1011.0
20260506032703 20 233 6.4 17.7 0.00 0.00 0.00 73 1010.9
20260506031803 20 227 8.0 22.5 0.00 0.00 0.00 73 1011.0
20260506030903 20 227 8.0 24.1 0.00 0.00 0.00 72 1011.1
20260506030003 20 235 8.0 27.4 0.00 0.00 0.00 72 1011.0
20260506025403 20 234 9.7 27.4 0.00 0.00 0.00 72 1011.0
20260506024503 20 229 8.0 22.5 0.00 0.00 0.00 71 1010.9
20260506023603 20 231 8.0 25.7 0.00 0.00 0.00 71 1011.1
20260506022703 20 222 8.0 25.7 0.00 0.00 0.00 70 1011.0
20260506021803 20 226 9.7 27.4 0.00 0.00 0.00 69 1011.1
20260506020903 20 222 8.0 24.1 0.00 0.00 0.00 69 1011.0
20260506020003 20 230 9.7 24.1 0.00 0.00 0.00 69 1011.1
20260506015403 21 232 9.7 24.1 0.00 0.00 0.00 68 1011.0
20260506014503 20 218 8.0 24.1 0.00 0.00 0.00 68 1010.7
20260506013817 21 222 8.0 22.5 0.00 0.00 0.00 68 1010.7
20260506012914 21 225 9.7 20.9 0.00 0.00 0.00 68 1010.6
20260506011803 21 237 8.0 24.1 0.00 0.00 0.00 66 1010.7
20260506010903 21 232 9.7 30.6 0.00 0.00 0.00 66 1010.4
20260506010003 21 225 8.0 22.5 0.00 0.00 0.00 66 1010.4
20260506005403 21 217 8.0 24.1 0.00 0.00 0.00 65 1010.3
20260506004503 21 225 8.0 22.5 0.00 0.00 0.00 64 1010.2
20260506003603 22 221 8.0 17.7 0.00 0.00 0.00 63 1010.2
20260506002703 22 220 8.0 27.4 0.00 0.00 0.00 63 1010.1
20260506001803 22 231 8.0 27.4 0.00 0.00 0.00 62 1010.0
20260506000903 22 229 8.0 22.5 0.00 0.00 0.00 61 1010.0
20260506000003 22 227 6.4 17.7 0.00 0.00 0.00 61 1009.8
20260505235403 23 229 6.4 19.3 0.00 0.00 0.00 60 1009.7
20260505234503 23 229 8.0 22.5 0.00 0.00 0.00 59 1009.6
20260505233813 23 218 6.4 20.9 0.00 0.00 0.00 58 1009.4
20260505232703 25 212 4.8 16.1 0.00 0.00 0.00 55 1009.4
20260505231803 25 232 6.4 22.5 0.00 0.00 0.00 52 1009.2
20260505230903 26 228 8.0 29.0 0.00 0.00 0.00 51 1009.2
20260505230003 26 224 6.4 29.0 0.00 0.00 0.00 51 1009.1
20260505225403 26 221 4.8 22.5 0.00 0.00 0.00 52 1009.0
20260505224503 26 230 6.4 16.1 0.00 0.00 0.00 51 1008.9
20260505223603 27 223 6.4 32.2 0.00 0.00 0.00 50 1008.7
20260505222703 27 215 6.4 22.5 0.00 0.00 0.00 50 1008.7
20260505221803 27 230 8.0 19.3 0.00 0.00 0.00 50 1008.6
20260505220903 27 233 9.7 32.2 0.00 0.00 0.00 49 1008.5
20260505220003 28 222 6.4 24.1 0.00 0.00 0.00 48 1008.4
20260505215615 28 218 6.4 17.7 0.00 0.00 0.00 48 1008.4
20260505214503 30 230 8.0 20.9 0.00 0.00 0.00 47 1008.3
20260505213603 30 227 11.3 29.0 0.00 0.00 0.00 39 1008.3
20260505212703 30 235 12.9 29.0 0.00 0.00 0.00 38 1008.2